Time,TemperatureF,DewpointF,PressureIn,WindDirection,WindDirectionDegrees,WindSpeedMPH,WindSpeedGustMPH,Humidity,HourlyPrecipIn,Conditions,Clouds,dailyrainin,SoftwareType,DateUTC
2013-04-23 00:00:00,67.3,22.3,29.95,SW,235,8.0,10.0,18,0.00,CLR,,0.00,WeatherDisplay:10.37,2013-04-23 07:00:00,
2013-04-23 00:05:00,67.2,22.2,29.95,SW,225,1.0,2.0,18,0.00,CLR,,0.00,WeatherDisplay:10.37,2013-04-23 07:05:00,
2013-04-23 00:10:00,67.0,22.1,29.95,SW,228,8.0,10.0,18,0.00,CLR,,0.00,WeatherDisplay:10.37,2013-04-23 07:10:00,
2013-04-23 00:20:00,66.9,22.0,29.95,WSW,238,1.0,6.0,18,0.00,CLR,,0.00,WeatherDisplay:10.37,2013-04-23 07:20:00,
2013-04-23 00:30:00,66.7,21.8,29.95,WSW,238,8.0,8.0,18,0.00,CLR,,0.00,WeatherDisplay:10.37,2013-04-23 07:30:00,
2013-04-23 00:40:00,66.7,21.8,29.95,SW,220,8.0,11.0,18,0.00,CLR,,0.00,WeatherDisplay:10.37,2013-04-23 07:40:00,
2013-04-23 00:50:00,66.0,21.2,29.94,SW,217,1.0,11.0,18,0.00,CLR,,0.00,WeatherDisplay:10.37,2013-04-23 07:50:00,
2013-04-23 01:00:00,65.8,21.1,29.95,SW,225,8.0,10.0,18,0.00,CLR,,0.00,WeatherDisplay:10.37,2013-04-23 08:00:00,
2013-04-23 01:05:00,65.8,21.1,29.94,SW,223,2.0,7.0,18,0.00,CLR,,0.00,WeatherDisplay:10.37,2013-04-23 08:05:00,
2013-04-23 01:10:00,65.7,20.9,29.94,SW,218,2.0,6.0,18,0.00,CLR,,0.00,WeatherDisplay:10.37,2013-04-23 08:10:00,
2013-04-23 01:20:00,65.3,21.9,29.94,SSW,205,3.0,6.0,19,0.00,CLR,,0.00,WeatherDisplay:10.37,2013-04-23 08:20:00,
2013-04-23 01:30:00,65.1,21.8,29.94,SSW,206,0.0,0.0,19,0.00,CLR,,0.00,WeatherDisplay:10.37,2013-04-23 08:30:00,
2013-04-23 01:40:00,64.7,21.4,29.94,ESE,107,6.0,7.0,19,0.00,CLR,,0.00,WeatherDisplay:10.37,2013-04-23 08:40:00,
2013-04-23 01:50:00,63.9,20.7,29.94,ENE,68,0.0,0.0,19,0.00,CLR,,0.00,WeatherDisplay:10.37,2013-04-23 08:50:00,
2013-04-23 02:00:00,62.7,21.0,29.94,ENE,68,0.0,0.0,20,0.00,CLR,,0.00,WeatherDisplay:10.37,2013-04-23 09:00:00,
2013-04-23 02:05:00,62.1,20.5,29.94,ENE,68,0.0,0.0,20,0.00,CLR,,0.00,WeatherDisplay:10.37,2013-04-23 09:05:00,
2013-04-23 02:10:00,61.4,19.9,29.94,ENE,68,0.0,0.0,20,0.00,CLR,,0.00,WeatherDisplay:10.37,2013-04-23 09:10:00,
2013-04-23 02:20:00,60.6,19.3,29.93,ENE,68,0.0,0.0,20,0.00,CLR,,0.00,WeatherDisplay:10.37,2013-04-23 09:20:00,
2013-04-23 02:30:00,59.7,19.7,29.94,ENE,68,0.0,0.0,21,0.00,CLR,,0.00,WeatherDisplay:10.37,2013-04-23 09:30:00,
2013-04-23 02:40:00,59.2,19.2,29.94,ENE,68,0.0,0.0,21,0.00,CLR,,0.00,WeatherDisplay:10.37,2013-04-23 09:40:00,
2013-04-23 02:50:00,58.8,18.9,29.94,ENE,68,0.0,0.0,21,0.00,CLR,,0.00,WeatherDisplay:10.37,2013-04-23 09:50:00,
2013-04-23 03:00:00,58.3,18.5,29.94,SE,128,0.0,0.0,21,0.00,CLR,,0.00,WeatherDisplay:10.37,2013-04-23 10:00:00,
2013-04-23 03:05:00,58.1,19.4,29.94,SE,135,0.0,0.0,22,0.00,CLR,,0.00,WeatherDisplay:10.37,2013-04-23 10:05:00,
2013-04-23 03:10:00,57.9,19.2,29.94,SE,135,0.0,0.0,22,0.00,CLR,,0.00,WeatherDisplay:10.37,2013-04-23 10:10:00,
2013-04-23 03:20:00,57.6,18.9,29.94,SE,135,0.0,0.0,22,0.00,CLR,,0.00,WeatherDisplay:10.37,2013-04-23 10:20:00,
2013-04-23 03:30:00,57.4,18.8,29.94,SE,135,0.0,0.0,22,0.00,CLR,,0.00,WeatherDisplay:10.37,2013-04-23 10:30:00,
2013-04-23 03:40:00,57.0,18.5,29.93,SE,135,0.0,0.0,22,0.00,CLR,,0.00,WeatherDisplay:10.37,2013-04-23 10:40:00,
2013-04-23 03:50:00,57.0,18.5,29.93,South,184,0.0,0.0,22,0.00,CLR,,0.00,WeatherDisplay:10.37,2013-04-23 10:50:00,
2013-04-23 04:00:00,57.4,20.8,29.93,SW,220,0.0,0.0,24,0.00,CLR,,0.00,WeatherDisplay:10.37,2013-04-23 11:00:00,
2013-04-23 04:05:00,57.7,21.1,29.93,SSW,208,0.0,0.0,24,0.00,CLR,,0.00,WeatherDisplay:10.37,2013-04-23 11:05:00,
2013-04-23 04:10:00,58.7,21.9,29.93,SSW,202,0.0,0.0,24,0.00,CLR,,0.00,WeatherDisplay:10.37,2013-04-23 11:10:00,
2013-04-23 04:20:00,59.6,21.7,29.93,WSW,240,0.0,0.0,23,0.00,CLR,,0.00,WeatherDisplay:10.37,2013-04-23 11:20:00,
2013-04-23 04:30:00,59.4,20.5,29.93,South,185,0.0,0.0,22,0.00,CLR,,0.00,WeatherDisplay:10.37,2013-04-23 11:30:00,
2013-04-23 04:40:00,58.8,20.0,29.93,WSW,248,8.0,9.0,22,0.00,CLR,,0.00,WeatherDisplay:10.37,2013-04-23 11:40:00,
2013-04-23 04:50:00,59.9,20.9,29.93,WSW,246,0.0,0.0,22,0.00,CLR,,0.00,WeatherDisplay:10.37,2013-04-23 11:50:00,
2013-04-23 05:00:00,60.6,22.6,29.93,SW,234,8.0,12.0,23,0.00,CLR,,0.00,WeatherDisplay:10.37,2013-04-23 12:00:00,
2013-04-23 05:05:00,61.2,22.0,29.93,SSW,211,6.0,12.0,22,0.00,CLR,,0.00,WeatherDisplay:10.37,2013-04-23 12:05:00,
2013-04-23 05:10:00,61.7,21.3,29.93,SSW,201,1.0,10.0,21,0.00,CLR,,0.00,WeatherDisplay:10.37,2013-04-23 12:10:00,
2013-04-23 05:20:00,62.1,21.6,29.94,SSW,208,6.0,6.0,21,0.00,CLR,,0.00,WeatherDisplay:10.37,2013-04-23 12:20:00,
2013-04-23 05:30:00,62.4,21.9,29.94,SW,214,0.0,2.0,21,0.00,CLR,,0.00,WeatherDisplay:10.37,2013-04-23 12:30:00,
2013-04-23 05:40:00,62.4,21.9,29.94,SW,225,0.0,12.0,21,0.00,CLR,,0.00,WeatherDisplay:10.37,2013-04-23 12:40:00,
2013-04-23 05:50:00,62.2,21.8,29.95,SW,233,0.0,0.0,21,0.00,CLR,,0.00,WeatherDisplay:10.37,2013-04-23 12:50:00,
2013-04-23 06:00:00,61.5,21.2,29.95,NNW,341,0.0,0.0,21,0.00,CLR,,0.00,WeatherDisplay:10.37,2013-04-23 13:00:00,
2013-04-23 06:05:00,61.0,21.8,29.95,NNW,338,0.0,0.0,22,0.00,CLR,,0.00,WeatherDisplay:10.37,2013-04-23 13:05:00,
2013-04-23 06:10:00,60.5,21.4,29.95,NNW,338,0.0,0.0,22,0.00,CLR,,0.00,WeatherDisplay:10.37,2013-04-23 13:10:00,
2013-04-23 06:20:00,59.5,20.6,29.95,NNW,338,0.0,0.0,22,0.00,CLR,,0.00,WeatherDisplay:10.37,2013-04-23 13:20:00,
2013-04-23 06:30:00,58.8,20.0,29.96,NNE,17,0.0,0.0,22,0.00,CLR,,0.00,WeatherDisplay:10.37,2013-04-23 13:30:00,
2013-04-23 06:40:00,58.8,22.1,29.97,NNE,22,0.0,0.0,24,0.00,CLR,,0.00,WeatherDisplay:10.37,2013-04-23 13:40:00,
2013-04-23 06:50:00,58.8,22.1,29.97,NNE,22,0.0,0.0,24,0.00,CLR,,0.00,WeatherDisplay:10.37,2013-04-23 13:50:00,
2013-04-23 07:00:00,58.8,22.1,29.97,NNE,22,0.0,0.0,24,0.00,CLR,,0.00,WeatherDisplay:10.37,2013-04-23 14:00:00,
2013-04-23 07:05:00,58.8,22.1,29.97,NNE,22,0.0,0.0,24,0.00,CLR,,0.00,WeatherDisplay:10.37,2013-04-23 14:05:00,
2013-04-23 07:10:00,58.8,22.1,29.97,NNE,22,0.0,0.0,24,0.00,CLR,,0.00,WeatherDisplay:10.37,2013-04-23 14:10:00,
2013-04-23 07:20:00,58.8,22.1,29.97,NE,55,0.0,0.0,24,0.00,CLR,,0.00,WeatherDisplay:10.37,2013-04-23 14:20:00,
2013-04-23 07:30:00,59.5,22.6,29.98,ENE,68,0.0,0.0,24,0.00,CLR,,0.00,WeatherDisplay:10.37,2013-04-23 14:30:00,
2013-04-23 07:40:00,60.0,23.0,29.98,ENE,68,0.0,0.0,24,0.00,CLR,,0.00,WeatherDisplay:10.37,2013-04-23 14:40:00,
2013-04-23 07:50:00,60.6,23.6,29.98,ENE,68,0.0,0.0,24,0.00,CLR,,0.00,WeatherDisplay:10.37,2013-04-23 14:50:00,
2013-04-23 08:00:00,61.3,24.2,29.98,ENE,60,1.0,5.0,24,0.00,CLR,,0.00,WeatherDisplay:10.37,2013-04-23 15:00:00,
2013-04-23 08:05:00,61.5,24.3,29.99,NE,43,0.0,5.0,24,0.00,CLR,,0.00,WeatherDisplay:10.37,2013-04-23 15:05:00,
2013-04-23 08:10:00,62.1,24.8,29.98,NE,45,0.0,0.0,24,0.00,CLR,,0.00,WeatherDisplay:10.37,2013-04-23 15:10:00,
2013-04-23 08:20:00,63.1,25.7,29.99,ENE,68,0.0,0.0,24,0.00,CLR,,0.00,WeatherDisplay:10.37,2013-04-23 15:20:00,
2013-04-23 08:30:00,64.2,25.6,29.99,ENE,74,0.0,0.0,23,0.00,CLR,,0.00,WeatherDisplay:10.37,2013-04-23 15:30:00,
2013-04-23 08:40:00,65.3,26.5,29.98,ENE,68,0.0,0.0,23,0.00,CLR,,0.00,WeatherDisplay:10.37,2013-04-23 15:40:00,
2013-04-23 08:50:00,66.2,26.2,29.99,ESE,117,0.0,0.0,22,0.00,CLR,,0.00,WeatherDisplay:10.37,2013-04-23 15:50:00,
2013-04-23 09:00:00,67.5,27.2,29.99,East,95,0.0,0.0,22,0.00,CLR,,0.00,WeatherDisplay:10.37,2013-04-23 16:00:00,
2013-04-23 09:05:00,68.0,27.7,29.98,ENE,64,0.0,0.0,22,0.00,CLR,,0.00,WeatherDisplay:10.37,2013-04-23 16:05:00,
2013-04-23 09:10:00,68.7,28.3,29.99,ENE,68,0.0,0.0,22,0.00,CLR,,0.00,WeatherDisplay:10.37,2013-04-23 16:10:00,
2013-04-23 09:20:00,70.0,28.2,29.98,SSW,210,0.0,0.0,21,0.00,CLR,,0.00,WeatherDisplay:10.37,2013-04-23 16:20:00,
2013-04-23 09:30:00,71.2,26.8,29.98,SSW,201,6.0,6.0,19,0.00,CLR,,0.00,WeatherDisplay:10.37,2013-04-23 16:30:00,
2013-04-23 09:40:00,72.2,27.6,29.98,SSW,212,0.0,5.0,19,0.00,CLR,,0.00,WeatherDisplay:10.37,2013-04-23 16:40:00,
2013-04-23 09:50:00,73.2,27.1,29.98,SSW,198,5.0,5.0,18,0.00,CLR,,0.00,WeatherDisplay:10.37,2013-04-23 16:50:00,
2013-04-23 10:00:00,74.0,27.8,29.98,SSW,192,5.0,8.0,18,0.00,CLR,,0.00,WeatherDisplay:10.37,2013-04-23 17:00:00,
2013-04-23 10:05:00,74.3,28.0,29.98,SSW,199,7.0,8.0,18,0.00,CLR,,0.00,WeatherDisplay:10.37,2013-04-23 17:05:00,
2013-04-23 10:10:00,74.8,28.4,29.98,SW,214,3.0,7.0,18,0.00,CLR,,0.00,WeatherDisplay:10.37,2013-04-23 17:10:00,
2013-04-23 10:20:00,75.5,29.0,29.98,SSW,194,7.0,7.0,18,0.00,CLR,,0.00,WeatherDisplay:10.37,2013-04-23 17:20:00,
2013-04-23 10:30:00,76.1,29.5,29.97,SSW,206,1.0,2.0,18,0.00,CLR,,0.00,WeatherDisplay:10.37,2013-04-23 17:30:00,
2013-04-23 10:40:00,76.6,29.9,29.98,SSW,213,7.0,13.0,18,0.00,CLR,,0.00,WeatherDisplay:10.37,2013-04-23 17:40:00,
2013-04-23 10:50:00,77.1,30.3,29.97,SW,218,1.0,9.0,18,0.00,CLR,,0.00,WeatherDisplay:10.37,2013-04-23 17:50:00,
2013-04-23 11:00:00,77.7,30.8,29.97,SW,231,7.0,9.0,18,0.00,CLR,,0.00,WeatherDisplay:10.37,2013-04-23 18:00:00,
2013-04-23 11:05:00,78.1,29.7,29.97,SW,235,0.0,7.0,17,0.00,CLR,,0.00,WeatherDisplay:10.37,2013-04-23 18:05:00,
2013-04-23 11:10:00,78.3,31.3,29.97,SW,225,3.0,7.0,18,0.00,CLR,,0.00,WeatherDisplay:10.37,2013-04-23 18:10:00,
2013-04-23 11:20:00,78.6,30.1,29.97,SW,230,12.0,12.0,17,0.00,CLR,,0.00,WeatherDisplay:10.37,2013-04-23 18:20:00,
2013-04-23 11:30:00,78.6,30.1,29.97,South,186,0.0,7.0,17,0.00,CLR,,0.00,WeatherDisplay:10.37,2013-04-23 18:30:00,
2013-04-23 11:40:00,79.0,30.4,29.96,SW,220,1.0,6.0,17,0.00,CLR,,0.00,WeatherDisplay:10.37,2013-04-23 18:40:00,
2013-04-23 11:50:00,80.1,31.3,29.96,WSW,239,5.0,7.0,17,0.00,CLR,,0.00,WeatherDisplay:10.37,2013-04-23 18:50:00,
2013-04-23 12:00:00,81.3,30.8,29.96,West,259,8.0,8.0,16,0.00,CLR,,0.00,WeatherDisplay:10.37,2013-04-23 19:00:00,
2013-04-23 12:10:00,82.2,31.5,29.96,SW,232,0.0,0.0,16,0.00,CLR,,0.00,WeatherDisplay:10.37,2013-04-23 19:10:00,
2013-04-23 12:15:00,82.8,32.0,29.96,West,260,0.0,9.0,16,0.00,CLR,,0.00,WeatherDisplay:10.37,2013-04-23 19:15:00,
2013-04-23 12:20:00,83.1,32.2,29.96,West,262,0.0,5.0,16,0.00,CLR,,0.00,WeatherDisplay:10.37,2013-04-23 19:20:00,
2013-04-23 12:30:00,84.0,31.4,29.96,West,267,0.0,11.0,15,0.00,CLR,,0.00,WeatherDisplay:10.37,2013-04-23 19:30:00,
2013-04-23 12:40:00,84.6,31.8,29.95,West,273,0.0,4.0,15,0.00,CLR,,0.00,WeatherDisplay:10.37,2013-04-23 19:40:00,
2013-04-23 12:50:00,84.9,30.4,29.95,WSW,244,1.0,12.0,14,0.00,CLR,,0.00,WeatherDisplay:10.37,2013-04-23 19:50:00,
2013-04-23 13:00:00,85.6,32.6,29.95,SW,234,0.0,7.0,15,0.00,CLR,,0.00,WeatherDisplay:10.37,2013-04-23 20:00:00,
2013-04-23 13:05:00,85.4,32.5,29.95,WSW,239,7.0,7.0,15,0.00,CLR,,0.00,WeatherDisplay:10.37,2013-04-23 20:05:00,
2013-04-23 13:10:00,85.3,32.4,29.95,SW,236,5.0,7.0,15,0.00,CLR,,0.00,WeatherDisplay:10.37,2013-04-23 20:10:00,
2013-04-23 13:20:00,85.6,32.6,29.95,WSW,254,6.0,9.0,15,0.00,CLR,,0.00,WeatherDisplay:10.37,2013-04-23 20:20:00,
2013-04-23 13:30:00,85.9,31.2,29.95,WSW,254,10.0,10.0,14,0.00,CLR,,0.00,WeatherDisplay:10.37,2013-04-23 20:30:00,
2013-04-23 13:40:00,85.8,31.1,29.94,WSW,248,8.0,10.0,14,0.00,CLR,,0.00,WeatherDisplay:10.37,2013-04-23 20:40:00,
2013-04-23 13:50:00,86.2,31.4,29.94,WSW,248,9.0,10.0,14,0.00,CLR,,0.00,WeatherDisplay:10.37,2013-04-23 20:50:00,
2013-04-23 14:00:00,86.7,31.8,29.94,WSW,248,0.0,7.0,14,0.00,CLR,,0.00,WeatherDisplay:10.37,2013-04-23 21:00:00,
2013-04-23 14:05:00,86.7,31.8,29.94,WSW,248,13.0,14.0,14,0.00,CLR,,0.00,WeatherDisplay:10.37,2013-04-23 21:05:00,
2013-04-23 14:10:00,86.7,31.8,29.94,WSW,248,3.0,8.0,14,0.00,CLR,,0.00,WeatherDisplay:10.37,2013-04-23 21:10:00,
2013-04-23 14:20:00,87.1,32.1,29.94,WSW,248,6.0,10.0,14,0.00,CLR,,0.00,WeatherDisplay:10.37,2013-04-23 21:20:00,
2013-04-23 14:30:00,87.6,32.5,29.94,WSW,248,0.0,5.0,14,0.00,CLR,,0.00,WeatherDisplay:10.37,2013-04-23 21:30:00,
2013-04-23 14:40:00,87.4,32.4,29.94,WSW,251,5.0,5.0,14,0.00,CLR,,0.00,WeatherDisplay:10.37,2013-04-23 21:40:00,
2013-04-23 14:50:00,87.6,32.5,29.94,WSW,248,1.0,6.0,14,0.00,CLR,,0.00,WeatherDisplay:10.37,2013-04-23 21:50:00,
2013-04-23 15:00:00,87.1,32.1,29.93,WSW,256,13.0,14.0,14,0.00,CLR,,0.00,WeatherDisplay:10.37,2013-04-23 22:00:00,
2013-04-23 15:05:00,86.7,31.8,29.93,WSW,248,7.0,8.0,14,0.00,CLR,,0.00,WeatherDisplay:10.37,2013-04-23 22:05:00,
2013-04-23 15:10:00,86.7,31.8,29.93,WSW,248,6.0,6.0,14,0.00,CLR,,0.00,WeatherDisplay:10.37,2013-04-23 22:10:00,
2013-04-23 15:20:00,87.1,32.1,29.93,WSW,248,0.0,6.0,14,0.00,CLR,,0.00,WeatherDisplay:10.37,2013-04-23 22:20:00,
2013-04-23 15:30:00,87.1,32.1,29.92,WSW,248,3.0,8.0,14,0.00,CLR,,0.00,WeatherDisplay:10.37,2013-04-23 22:30:00,
2013-04-23 15:40:00,87.3,32.2,29.92,WSW,248,6.0,7.0,14,0.00,CLR,,0.00,WeatherDisplay:10.37,2013-04-23 22:40:00,
2013-04-23 15:50:00,87.3,32.2,29.93,WSW,248,6.0,6.0,14,0.00,CLR,,0.00,WeatherDisplay:10.37,2013-04-23 22:50:00,
2013-04-23 16:00:00,87.1,32.1,29.92,WSW,248,0.0,9.0,14,0.00,CLR,,0.00,WeatherDisplay:10.37,2013-04-23 23:00:00,
2013-04-23 16:05:00,86.9,32.0,29.92,WSW,248,8.0,9.0,14,0.00,CLR,,0.00,WeatherDisplay:10.37,2013-04-23 23:05:00,
2013-04-23 16:10:00,86.7,31.8,29.93,WSW,248,6.0,9.0,14,0.00,CLR,,0.00,WeatherDisplay:10.37,2013-04-23 23:10:00,
2013-04-23 16:20:00,86.0,31.2,29.93,WSW,248,9.0,10.0,14,0.00,CLR,,0.00,WeatherDisplay:10.37,2013-04-23 23:20:00,
2013-04-23 16:30:00,85.5,30.8,29.93,WSW,248,5.0,10.0,14,0.00,CLR,,0.00,WeatherDisplay:10.37,2013-04-23 23:30:00,
2013-04-23 16:40:00,84.7,30.2,29.93,WSW,248,1.0,12.0,14,0.00,CLR,,0.00,WeatherDisplay:10.37,2013-04-23 23:40:00,
2013-04-23 16:50:00,84.0,29.7,29.94,WSW,248,0.0,7.0,14,0.00,CLR,,0.00,WeatherDisplay:10.37,2013-04-23 23:50:00,
2013-04-23 17:00:00,83.2,29.1,29.94,WSW,248,0.0,6.0,14,0.00,CLR,,0.00,WeatherDisplay:10.37,2013-04-24 00:00:00,
2013-04-23 17:05:00,82.7,30.3,29.93,WSW,248,9.0,12.0,15,0.00,CLR,,0.00,WeatherDisplay:10.37,2013-04-24 00:05:00,
2013-04-23 17:10:00,82.2,29.9,29.94,WSW,248,0.0,6.0,15,0.00,CLR,,0.00,WeatherDisplay:10.37,2013-04-24 00:10:00,
2013-04-23 17:20:00,81.4,29.3,29.93,WSW,248,0.0,0.0,15,0.00,CLR,,0.00,WeatherDisplay:10.37,2013-04-24 00:20:00,
2013-04-23 17:30:00,80.8,28.8,29.93,WSW,248,2.0,7.0,15,0.00,CLR,,0.00,WeatherDisplay:10.37,2013-04-24 00:30:00,
2013-04-23 17:40:00,79.9,28.1,29.93,WSW,248,0.0,9.0,15,0.00,CLR,,0.00,WeatherDisplay:10.37,2013-04-24 00:40:00,
2013-04-23 17:50:00,79.3,27.6,29.93,WSW,248,0.0,0.0,15,0.00,CLR,,0.00,WeatherDisplay:10.37,2013-04-24 00:50:00,
2013-04-23 18:00:00,78.6,27.1,29.93,WSW,248,0.0,0.0,15,0.00,CLR,,0.00,WeatherDisplay:10.37,2013-04-24 01:00:00,
2013-04-23 18:05:00,78.3,26.8,29.93,WSW,237,3.0,6.0,15,0.00,CLR,,0.00,WeatherDisplay:10.37,2013-04-24 01:05:00,
2013-04-23 18:10:00,78.1,26.6,29.92,SW,236,0.0,0.0,15,0.00,CLR,,0.00,WeatherDisplay:10.37,2013-04-24 01:10:00,
2013-04-23 18:15:00,77.8,26.4,29.93,WNW,284,5.0,7.0,15,0.00,CLR,,0.00,WeatherDisplay:10.37,2013-04-24 01:15:00,
2013-04-23 18:20:00,77.4,26.1,29.93,NW,306,0.0,7.0,15,0.00,CLR,,0.00,WeatherDisplay:10.37,2013-04-24 01:20:00,
2013-04-23 18:30:00,76.8,25.6,29.93,West,280,0.0,0.0,15,0.00,CLR,,0.00,WeatherDisplay:10.37,2013-04-24 01:30:00,
2013-04-23 18:40:00,76.1,26.6,29.93,WSW,252,0.0,0.0,16,0.00,CLR,,0.00,WeatherDisplay:10.37,2013-04-24 01:40:00,
2013-04-23 18:50:00,75.4,26.0,29.93,WSW,238,0.0,0.0,16,0.00,CLR,,0.00,WeatherDisplay:10.37,2013-04-24 01:50:00,
2013-04-23 19:00:00,74.7,25.5,29.94,WSW,242,0.0,0.0,16,0.00,CLR,,0.00,WeatherDisplay:10.37,2013-04-24 02:00:00,
2013-04-23 19:05:00,74.1,25.0,29.94,SW,232,0.0,0.0,16,0.00,CLR,,0.00,WeatherDisplay:10.37,2013-04-24 02:05:00,
2013-04-23 19:10:00,73.9,24.9,29.94,SW,215,0.0,0.0,16,0.00,CLR,,0.00,WeatherDisplay:10.37,2013-04-24 02:10:00,
2013-04-23 19:20:00,73.2,24.3,29.94,WSW,241,0.0,4.0,16,0.00,CLR,,0.00,WeatherDisplay:10.37,2013-04-24 02:20:00,
2013-04-23 19:30:00,72.7,23.9,29.95,SW,224,0.0,0.0,16,0.00,CLR,,0.00,WeatherDisplay:10.37,2013-04-24 02:30:00,
2013-04-23 19:50:00,71.8,24.6,29.95,SW,225,0.0,0.0,17,0.00,CLR,,0.00,WeatherDisplay:10.37,2013-04-24 02:50:00,
2013-04-23 20:00:00,70.9,23.9,29.96,SW,225,0.0,0.0,17,0.00,CLR,,0.00,WeatherDisplay:10.37,2013-04-24 03:00:00,
2013-04-23 20:05:00,70.7,23.7,29.96,SW,225,0.0,0.0,17,0.00,CLR,,0.00,WeatherDisplay:10.37,2013-04-24 03:05:00,
2013-04-23 20:20:00,69.6,22.8,29.97,SW,225,0.0,0.0,17,0.00,CLR,,0.00,WeatherDisplay:10.37,2013-04-24 03:20:00,
2013-04-23 20:40:00,68.4,23.2,29.97,SSW,204,0.0,0.0,18,0.00,CLR,,0.00,WeatherDisplay:10.37,2013-04-24 03:40:00,
2013-04-23 20:55:00,67.6,22.6,29.98,South,181,0.0,0.0,18,0.00,CLR,,0.00,WeatherDisplay:10.37,2013-04-24 03:55:00,
2013-04-23 21:05:00,67.3,22.3,29.97,SSW,210,0.0,0.0,18,0.00,CLR,,0.00,WeatherDisplay:10.37,2013-04-24 04:05:00,
2013-04-23 21:10:00,67.1,22.1,29.98,SSW,202,0.0,0.0,18,0.00,CLR,,0.00,WeatherDisplay:10.37,2013-04-24 04:10:00,
2013-04-23 21:15:00,66.8,21.9,29.98,SSW,202,0.0,0.0,18,0.00,CLR,,0.00,WeatherDisplay:10.37,2013-04-24 04:15:00,
2013-04-23 21:20:00,66.7,23.1,29.98,SSW,202,0.0,0.0,19,0.00,CLR,,0.00,WeatherDisplay:10.37,2013-04-24 04:20:00,
2013-04-23 21:30:00,66.2,22.7,29.98,SSW,202,0.0,0.0,19,0.00,CLR,,0.00,WeatherDisplay:10.37,2013-04-24 04:30:00,
2013-04-23 21:40:00,66.0,22.5,29.99,SSW,202,0.0,0.0,19,0.00,CLR,,0.00,WeatherDisplay:10.37,2013-04-24 04:40:00,
2013-04-23 21:45:00,66.0,22.5,29.98,SSW,207,0.0,0.0,19,0.00,CLR,,0.00,WeatherDisplay:10.37,2013-04-24 04:45:00,
2013-04-23 21:50:00,66.0,22.5,29.99,SW,218,0.0,0.0,19,0.00,CLR,,0.00,WeatherDisplay:10.37,2013-04-24 04:50:00,
2013-04-23 22:00:00,66.0,22.5,29.99,SW,215,0.0,0.0,19,0.00,CLR,,0.00,WeatherDisplay:10.37,2013-04-24 05:00:00,
2013-04-23 22:05:00,66.0,22.5,29.99,SSW,204,0.0,0.0,19,0.00,CLR,,0.00,WeatherDisplay:10.37,2013-04-24 05:05:00,
2013-04-23 22:10:00,65.8,22.4,29.99,SSW,203,0.0,0.0,19,0.00,CLR,,0.00,WeatherDisplay:10.37,2013-04-24 05:10:00,
2013-04-23 22:20:00,65.5,22.1,29.99,SSW,204,0.0,0.0,19,0.00,CLR,,0.00,WeatherDisplay:10.37,2013-04-24 05:20:00,
2013-04-23 22:30:00,65.3,21.9,30.00,SW,217,0.0,0.0,19,0.00,CLR,,0.00,WeatherDisplay:10.37,2013-04-24 05:30:00,
2013-04-23 22:40:00,65.1,23.0,30.00,SW,220,0.0,0.0,20,0.00,CLR,,0.00,WeatherDisplay:10.37,2013-04-24 05:40:00,
2013-04-23 22:50:00,64.9,22.9,30.00,West,263,0.0,0.0,20,0.00,CLR,,0.00,WeatherDisplay:10.37,2013-04-24 05:50:00,
2013-04-23 23:00:00,64.8,22.7,30.00,WNW,293,0.0,0.0,20,0.00,CLR,,0.00,WeatherDisplay:10.37,2013-04-24 06:00:00,
2013-04-23 23:05:00,64.8,22.7,30.00,WNW,285,0.0,0.0,20,0.00,CLR,,0.00,WeatherDisplay:10.37,2013-04-24 06:05:00,
2013-04-23 23:10:00,64.6,22.6,30.00,WSW,257,0.0,0.0,20,0.00,CLR,,0.00,WeatherDisplay:10.37,2013-04-24 06:10:00,
2013-04-23 23:20:00,64.4,22.4,30.01,WSW,248,0.0,0.0,20,0.00,CLR,,0.00,WeatherDisplay:10.37,2013-04-24 06:20:00,
2013-04-23 23:30:00,63.7,23.0,30.01,WSW,248,0.0,0.0,21,0.00,CLR,,0.00,WeatherDisplay:10.37,2013-04-24 06:30:00,
2013-04-23 23:40:00,63.5,22.8,30.01,West,262,0.0,0.0,21,0.00,CLR,,0.00,WeatherDisplay:10.37,2013-04-24 06:40:00,
2013-04-23 23:50:00,63.5,25.0,30.01,West,270,0.0,0.0,23,0.00,CLR,,0.00,WeatherDisplay:10.37,2013-04-24 06:50:00,